Location: Timmins
(48.4758°N, 81.3305°W)
Time: 23:40:53
(UTC-04:00)

ISS - Visible Passes

Search period start: 25 September 2017 00:00
Search period end: 05 October 2017 00:00
Orbit: 401 x 407 km, 51.6° (Epoch: 26 September)

Date Brightness Start Highest point End Pass type
(mag) Time Alt. Az. Time Alt. Az. Time Alt. Az.
25 Sep -1.4 21:29:34 10° SW 21:30:17 15° SW 21:30:17 15° SW visible
26 Sep -2.9 20:37:36 10° SSW 20:40:29 29° SE 20:40:35 29° SE visible
27 Sep -2.1 19:46:00 10° S 19:48:18 18° SE 19:50:37 10° E visible
27 Sep -2.8 21:21:07 10° WSW 21:23:22 41° WSW 21:23:22 41° WSW visible
28 Sep -3.7 20:28:51 10° SW 20:32:03 55° SSE 20:33:20 31° E visible
28 Sep -0.7 22:05:22 10° W 22:05:59 14° W 22:05:59 14° W visible
29 Sep -3.0 19:36:46 10° SSW 19:39:46 34° SE 19:42:47 10° E visible
29 Sep -3.3 21:12:52 10° W 21:15:48 59° NW 21:15:48 59° NW visible
30 Sep -3.9 20:20:25 10° WSW 20:23:42 86° NNW 20:25:32 24° ENE visible
30 Sep -0.9 21:57:12 10° WNW 21:58:11 18° WNW 21:58:11 18° WNW visible
01 Oct -3.7 19:28:03 10° SW 19:31:17 64° SSE 19:34:33 10° ENE visible
01 Oct -3.2 21:04:39 10° W 21:07:50 49° N 21:07:50 49° N visible
02 Oct -3.4 20:12:07 10° W 20:15:22 58° NNW 20:17:26 20° ENE visible
02 Oct -1.0 21:48:55 10° WNW 21:50:04 19° WNW 21:50:04 19° WNW visible
03 Oct -3.1 20:56:24 10° WNW 20:59:35 45° N 20:59:37 45° N visible
04 Oct -3.1 20:03:51 10° W 20:07:02 47° N 20:09:09 19° ENE visible
04 Oct -1.2 21:40:32 10° WNW 21:41:47 21° WNW 21:41:47 21° WNW visible
